Terminal Aerodrome Forecast
Issued by NWS Midland/Odessa, TX

Home | Current Version | Previous Version | Text Only | Print | Product List | Glossary On
Versions: 1 2 3 4 5 6 7 8 9 10 11 12 13 14 15 16 17 18 19 20 21 22 23 24 25 26
886
FTUS44 KMAF 250520
TAFMAF
TAF
KMAF 250520Z 2506/2606 12010KT P6SM BKN035
      TEMPO 2506/2507 09014G20KT
     FM251600 12011G18KT P6SM BKN060 BKN120=

USA.gov is the U.S. government's official web portal to all federal, state and local government web resources and services.